Weather reports worldwide

Advertisment
Manschnow, Germany (10396): temperature & dewpoint: 10.08.2018 18:00:00 - 16.08.2018 18:00:00 (CEST)Manschnow, Germany (10396): temperature 5cm & temperature -5cm: 10.08.2018 18:00:00 - 16.08.2018 18:00:00 (CEST)Manschnow, Germany (10396): temperature -20cm & temperature -100cm: 10.08.2018 18:00:00 - 16.08.2018 18:00:00 (CEST)Manschnow, Germany (10396): wind speed & gusts: 10.08.2018 18:00:00 - 16.08.2018 18:00:00 (CEST)Manschnow, Germany (10396): wind direction: 10.08.2018 18:00:00 - 16.08.2018 18:00:00 (CEST)Manschnow, Germany (10396): reduced air pressure: 10.08.2018 18:00:00 - 16.08.2018 18:00:00 (CEST)Manschnow, Germany (10396): visibility: 10.08.2018 18:00:00 - 16.08.2018 18:00:00 (CEST)Manschnow, Germany (10396): sunshine duration: 10.08.2018 18:00:00 - 16.08.2018 18:00:00 (CEST)Manschnow, Germany (10396): precipitation: 10.08.2018 18:00:00 - 16.08.2018 18:00:00 (CEST)
Date & Time tt [°C] td [°C] tt 5cm [°C] tt -5cm [°C] tt -20cm [°C] tt -100cm [°C] ff [km/h] ff [kn] fx [km/h] fx [kn] dd ppp [hPa] vv [km] sd [min] rr [mm]
16.08.2018 18:00:00 28,8 10,7 31,5 34,7 28,1 21,8 10 5 26 14 S 1015,6 33 60 0,0
16.08.2018 17:00:00 28,6 9,8 31,9 36,0 27,6 21,8 10 6 23 12 SE 1015,8 28 60 0,0
16.08.2018 16:00:00 29,3 11,2 33,3 36,5 27,0 21,8 12 7 24 13 SE 1016,2 27 59 0,0
16.08.2018 15:00:00 28,3 10,2 33,3 36,1 26,4 21,8 13 7 24 13 S 1017,0 29 56 0,0
16.08.2018 14:00:00 27,6 10,7 32,0 35,2 25,6 21,8 14 8 22 12 SSW 1017,5 27 50 0,0
16.08.2018 13:00:00 26,7 11,2 31,5 33,7 24,9 21,8 8 4 21 11 SSW 1018,0 42 49 0,0
16.08.2018 12:00:00 26,4 11,2 32,7 32,4 24,2 21,8 5 3 14 8 E 1018,6 25 58 0,0
16.08.2018 11:00:00 25,0 12,4 29,9 29,7 23,6 21,8 5 3 20 11 S 1019,1 33 60 0,0
16.08.2018 10:00:00 23,6 13,3 28,2 26,7 23,2 21,8 7 4 12 6 E 1019,5 34 60 0,0
16.08.2018 09:00:00 21,3 13,1 24,4 23,5 23,1 21,8 6 3 9 5 ESE 1019,5 24 60 0,0
16.08.2018 08:00:00 18,0 13,1 20,2 20,8 23,2 21,8 3 2 5 3 ESE 1019,6 21 60 0,0
16.08.2018 07:00:00 14,7 12,5 13,6 19,2 23,5 21,8 2 1 6 3 SE 1019,7 16 28 0,0
16.08.2018 06:00:00 12,4 10,9 11,2 19,2 23,9 21,8 4 2 6 4 SE 1019,6 16 0 0,0
16.08.2018 05:00:00 12,7 11,0 11,2 19,8 24,3 21,8 3 1 4 2 SE 1019,7 18 0 0,0
16.08.2018 04:00:00 13,1 11,0 12,0 20,4 24,6 21,8 2 1 3 2 SE 1019,6 26 0 0,0
16.08.2018 03:00:00 14,4 12,1 12,7 21,1 25,0 21,8 1 1 3 2 WNW 1019,7 28 0 0,0
16.08.2018 02:00:00 15,6 12,7 13,7 22,0 25,3 21,8 3 1 7 4 SSE 1019,7 29 0 0,0
16.08.2018 01:00:00 17,2 13,1 16,4 23,0 25,6 21,8 5 3 7 4 SE 1019,6 29 0 0,0
16.08.2018 00:00:00 18,2 13,5 17,8 23,6 26,0 21,8 2 1 5 3 SE 1019,5 31 0 0,0
15.08.2018 23:00:00 18,3 13,5 17,1 24,2 26,3 21,8 4 2 5 3 WNW 1019,3 37 0 0,0
15.08.2018 22:00:00 20,3 13,2 19,2 25,2 26,6 21,8 2 1 4 2 NNW 1019,1 36 0 0,0
15.08.2018 21:00:00 20,6 13,5 20,1 26,1 26,8 21,8 4 2 6 4 WNW 1018,7 40 0 0,0
15.08.2018 20:00:00 22,7 12,6 22,0 27,5 27,0 21,8 4 2 13 7 NW 1018,2 47 1 0,0
15.08.2018 19:00:00 23,7 11,9 24,1 28,6 27,1 21,8 7 4 16 9 NW 1018,1 48 0 0,0
15.08.2018 18:00:00 24,3 11,1 25,7 30,4 27,1 21,8 9 5 22 12 WNW 1018,0 47 6 0,0
15.08.2018 17:00:00 24,7 11,6 26,7 32,0 26,8 21,8 13 7 24 13 WNW 1017,9 48 14 0,0
15.08.2018 16:00:00 24,6 11,3 27,0 32,7 26,4 21,8 14 7 29 16 WNW 1018,0 47 8 0,0
15.08.2018 15:00:00 25,0 11,4 30,0 33,4 25,8 21,8 16 9 31 17 WNW 1017,9 44 30 0,0
15.08.2018 14:00:00 24,4 10,6 30,1 34,0 25,1 21,8 15 8 35 19 WNW 1017,8 32 51 0,0
15.08.2018 13:00:00 24,0 10,7 29,9 31,9 24,5 21,9 16 9 31 17 WNW 1017,8 30 57 0,0
15.08.2018 12:00:00 22,7 12,8 28,4 28,4 24,1 21,9 19 10 32 17 W 1018,0 32 38 0,0
15.08.2018 11:00:00 20,8 13,5 23,1 25,4 23,9 21,9 18 10 29 15 W 1017,6 36 8 0,0
15.08.2018 10:00:00 19,8 14,1 21,4 23,9 23,9 21,9 18 10 30 16 W 1017,0 38 5 0,0
15.08.2018 09:00:00 18,7 14,0 19,1 22,6 24,0 21,9 20 11 32 17 W 1016,4 28 0 0,0
15.08.2018 08:00:00 18,9 14,3 19,4 22,5 24,0 21,9 15 8 27 15 W 1015,8 23 0 0,0
15.08.2018 07:00:00 18,8 14,7 19,1 22,0 24,2 21,9 14 7 25 13 W 1015,4 25 0 0,0
15.08.2018 06:00:00 18,6 14,8 18,4 22,0 24,4 21,9 10 5 23 12 W 1014,9 29 0 0,0
15.08.2018 05:00:00 18,7 15,0 18,6 22,0 24,6 21,9 15 8 25 14 W 1014,6 27 0 0,0
15.08.2018 04:00:00 18,2 15,2 17,8 21,9 24,8 21,9 8 5 25 14 W 1014,3 20 0 0,0
15.08.2018 03:00:00 18,7 15,3 18,0 22,4 25,1 21,9 15 8 27 15 W 1013,6 26 0 0,0
15.08.2018 02:00:00 19,1 15,5 18,5 22,7 25,4 21,9 18 10 30 16 W 1013,5 34 0 0,0
15.08.2018 01:00:00 19,1 15,6 18,4 22,9 25,7 21,9 12 7 22 12 W 1013,2 37 0 0,0
15.08.2018 00:00:00 19,1 15,9 18,5 23,2 26,0 21,9 12 7 22 12 WSW 1012,8 37 0 0,0
14.08.2018 23:00:00 19,8 15,9 18,9 23,9 26,4 21,9 12 7 23 12 WSW 1012,4 37 0 0,0
14.08.2018 22:00:00 20,1 15,3 19,2 24,7 26,7 21,9 12 6 25 14 WSW 1012,1 43 0 0,0
14.08.2018 21:00:00 21,3 14,2 20,8 25,9 27,0 21,9 16 9 36 20 W 1011,4 50 0 0,0
14.08.2018 20:00:00 23,1 13,2 22,6 27,4 27,2 21,9 15 8 29 15 WSW 1010,7 32 20 0,0
14.08.2018 19:00:00 24,2 12,9 25,4 28,5 27,3 21,9 12 6 29 16 WSW 1010,3 39 3 0,0
14.08.2018 18:00:00 24,2 12,2 25,0 29,7 27,3 21,9 16 9 32 17 WSW 1010,3 46 1 0,0
14.08.2018 17:00:00 24,6 12,1 26,1 30,4 27,2 21,9 17 9 33 18 WSW 1010,2 28 0 0,0
14.08.2018 16:00:00 24,5 11,6 26,0 31,9 27,0 21,9 15 8 35 19 WSW 1010,1 31 16 0,0
14.08.2018 15:00:00 24,3 11,4 27,2 31,9 26,7 21,9 20 11 35 19 SW 1010,3 30 7 0,0
14.08.2018 14:00:00 24,6 12,2 27,7 32,5 26,2 21,9 16 9 34 18 WSW 1010,0 23 17 0,0
14.08.2018 13:00:00 25,6 12,7 31,6 33,1 25,6 21,9 17 9 34 18 SW 1009,8 21 45 0,0
14.08.2018 12:00:00 24,2 12,7 28,5 31,7 25,1 21,9 19 11 36 19 WSW 1009,8 18 53 0,0
14.08.2018 11:00:00 22,6 13,4 26,8 28,9 24,7 21,9 18 10 30 16 WSW 1009,8 39 48 0,0
14.08.2018 10:00:00 21,6 13,5 25,2 26,6 24,5 21,9 17 9 29 16 WSW 1009,6 30 52 0,0
14.08.2018 09:00:00 20,4 13,9 23,1 24,2 24,6 21,9 16 9 24 13 W 1009,2 17 43 0,0
14.08.2018 08:00:00 19,6 13,9 20,8 22,8 24,7 21,9 16 9 27 15 WSW 1008,8 27 24 0,0
14.08.2018 07:00:00 19,0 13,6 18,1 22,5 25,0 21,9 11 6 21 11 W 1008,6 36 0 0,0
14.08.2018 06:00:00 20,1 13,7 19,6 22,9 25,2 21,9 12 6 22 12 SW 1008,0 41 0 0,0
14.08.2018 05:00:00 20,5 14,1 20,0 23,1 25,4 21,9 11 6 19 10 SW 1007,6 40 0 0,0
14.08.2018 04:00:00 20,1 14,2 19,4 23,3 25,7 21,9 8 4 15 8 SSW 1007,4 35 0 0,0
14.08.2018 03:00:00 20,0 14,2 19,1 23,6 26,0 22,0 7 4 12 6 SW 1007,3 40 0 0,0
14.08.2018 02:00:00 20,2 14,1 19,2 24,1 26,3 22,0 7 4 11 6 SSW 1007,3 37 0 0,0
14.08.2018 01:00:00 21,1 14,1 20,2 24,7 26,7 22,0 6 4 19 10 SW 1007,4 56 0 0,0
14.08.2018 00:00:00 21,5 13,8 20,9 25,2 27,0 22,0 9 5 18 10 SW 1007,4 54 0 0,0
13.08.2018 23:00:00 22,8 13,3 19,6 26,2 27,3 22,0 13 7 27 15 WSW 1007,3 35 0 0,0
13.08.2018 22:00:00 23,8 11,3 23,0 26,9 27,7 22,0 10 5 20 11 W 1007,0 47 0 0,0
13.08.2018 21:00:00 24,9 10,5 24,4 28,0 28,0 22,0 11 6 25 14 WSW 1007,1 40 0 0,0
13.08.2018 20:00:00 25,9 10,1 25,6 29,4 28,2 22,0 20 11 50 27 WNW 1006,2 39 0 0,0
13.08.2018 19:00:00 27,5 9,7 25,9 30,9 28,4 22,0 5 3 21 12 WNW 1005,7 39 0 0,0
13.08.2018 18:00:00 30,1 6,5 30,0 32,8 28,3 22,0 10 5 22 12 WNW 1005,7 46 1 0,0
13.08.2018 17:00:00 31,1 5,3 31,9 35,2 28,0 22,0 14 8 23 13 W 1005,7 30 8 0,0
13.08.2018 16:00:00 32,6 5,9 36,7 37,4 27,3 22,1 10 5 27 15 SSW 1005,8 31 56 0,0
13.08.2018 15:00:00 32,2 5,6 36,5 38,0 26,5 22,1 16 9 27 14 SW 1006,3 23 60 0,0
13.08.2018 14:00:00 31,2 7,3 37,3 37,0 25,5 22,1 13 7 27 15 S 1006,8 24 60 0,0
13.08.2018 13:00:00 30,2 8,5 37,0 35,5 24,5 22,1 11 6 20 11 ESE 1007,1 32 60 0,0
13.08.2018 12:00:00 28,3 10,6 36,2 32,5 23,7 22,1 5 3 13 7 ESE 1008,0 21 60 0,0
13.08.2018 11:00:00 25,7 10,5 29,6 29,2 23,1 22,1 7 4 15 8 ESE 1008,5 25 60 0,0
13.08.2018 10:00:00 22,6 9,3 26,9 25,9 22,7 22,1 7 4 12 7 E 1008,8 38 60 0,0
13.08.2018 09:00:00 20,0 8,1 23,2 22,5 22,5 22,1 6 3 11 6 ESE 1009,3 28 60 0,0
13.08.2018 08:00:00 16,5 7,6 18,7 19,9 22,7 22,1 4 2 13 7 E 1009,5 26 60 0,0
13.08.2018 07:00:00 12,9 7,5 13,1 18,2 23,0 22,2 9 5 14 7 E 1009,3 31 32 0,0
13.08.2018 06:00:00 11,9 7,7 10,5 18,4 23,4 22,2 7 4 10 5 E 1009,7 24 0 0,0
13.08.2018 05:00:00 12,8 7,6 11,1 19,0 23,7 22,2 6 3 9 5 E 1010,0 27 0 0,0
13.08.2018 04:00:00 13,1 7,9 11,8 19,4 24,1 22,2 6 3 10 6 E 1010,4 29 0 0,0
13.08.2018 03:00:00 12,2 8,3 10,4 19,9 24,6 22,2 5 3 9 5 E 1010,9 32 0 0,0
13.08.2018 02:00:00 14,5 8,2 12,3 20,7 25,0 22,2 6 3 11 6 E 1011,1 31 0 0,0
13.08.2018 01:00:00 15,6 8,6 13,5 21,3 25,4 22,3 6 4 9 5 E 1011,7 35 0 0,0
13.08.2018 00:00:00 13,6 8,8 12,1 21,9 25,9 22,3 5 3 8 4 E 1012,1 35 0 0,0
12.08.2018 23:00:00 17,2 8,3 13,2 23,0 26,4 22,3 6 4 10 5 E 1012,3 37 0 0,0
12.08.2018 22:00:00 17,7 8,5 14,0 24,3 26,9 22,3 5 3 14 7 ENE 1012,4 43 0 0,0
12.08.2018 21:00:00 18,3 9,2 15,8 26,2 27,2 22,3 5 3 8 4 ESE 1012,9 45 0 0,0
12.08.2018 20:00:00 22,2 8,7 19,7 28,6 27,4 22,3 4 2 16 9 S 1013,1 39 29 0,0
12.08.2018 19:00:00 26,0 4,2 27,5 31,2 27,4 22,3 8 5 20 11 S 1013,4 47 60 0,0
12.08.2018 18:00:00 26,6 3,3 29,3 33,0 27,1 22,3 13 7 27 15 WSW 1014,1 38 60 0,0
12.08.2018 17:00:00 26,5 4,4 29,7 34,1 26,6 22,4 10 6 29 16 SSW 1014,7 39 60 0,0
12.08.2018 16:00:00 25,9 4,7 29,9 34,6 25,9 22,4 16 9 33 18 SW 1015,6 33 60 0,0
12.08.2018 15:00:00 25,5 5,5 30,3 34,1 25,2 22,4 13 7 31 17 SSW 1016,3 30 60 0,0
12.08.2018 14:00:00 24,5 6,1 30,0 33,1 24,4 22,4 15 8 34 18 WSW 1017,2 28 60 0,0
12.08.2018 13:00:00 23,5 5,9 28,9 31,8 23,6 22,4 13 7 29 15 WSW 1018,0 34 58 0,0
12.08.2018 12:00:00 22,4 7,6 27,8 29,2 22,8 22,4 15 8 28 15 SW 1018,8 35 51 0,0
12.08.2018 11:00:00 21,2 8,4 25,6 27,3 22,2 22,4 14 8 24 13 SSW 1019,3 31 60 0,0
12.08.2018 10:00:00 20,0 8,6 24,2 24,4 21,7 22,4 9 5 18 10 SSW 1019,5 34 60 0,0
12.08.2018 09:00:00 18,5 9,1 22,0 21,2 21,6 22,5 8 4 16 9 SW 1019,9 31 60 0,0
12.08.2018 08:00:00 15,4 8,7 17,7 18,4 21,7 22,5 8 5 16 9 WSW 1020,2 26 60 0,0
12.08.2018 07:00:00 11,9 8,4 12,0 16,7 22,0 22,5 5 3 13 7 SSW 1020,4 34 31 0,0
12.08.2018 06:00:00 9,9 7,4 9,0 16,3 22,3 22,5 9 5 14 8 SSW 1020,3 40 0 0,0
12.08.2018 05:00:00 9,0 6,8 6,9 16,8 22,7 22,5 5 3 14 8 S 1020,0 36 0 0,0
12.08.2018 04:00:00 9,7 7,1 7,4 17,4 23,1 22,5 6 3 10 6 SW 1020,1 39 0 0,0
12.08.2018 03:00:00 10,6 7,4 8,2 18,1 23,5 22,5 7 4 10 5 SW 1020,2 42 0 0,0
12.08.2018 02:00:00 14,6 7,7 12,8 18,9 23,9 22,5 9 5 16 9 W 1020,2 51 0 0,0
12.08.2018 01:00:00 15,1 7,8 13,6 19,5 24,3 22,5 11 6 19 10 W 1020,3 50 0 0,0
12.08.2018 00:00:00 15,8 7,4 14,3 20,2 24,7 22,6 12 7 22 12 W 1020,3 56 0 0,0
11.08.2018 23:00:00 16,8 7,2 15,4 21,0 25,1 22,6 14 7 27 15 W 1020,2 47 0 0,0
11.08.2018 22:00:00 17,5 6,7 16,1 22,0 25,5 22,6 14 7 24 13 W 1020,0 50 0 0,0
11.08.2018 21:00:00 19,1 5,9 17,9 23,3 25,8 22,6 13 7 38 20 WNW 1019,6 50 0 0,0
11.08.2018 20:00:00 21,1 4,1 20,1 25,1 25,9 22,6 20 11 40 22 W 1018,6 46 57 0,0
11.08.2018 19:00:00 22,6 4,2 23,1 27,2 25,8 22,6 23 12 45 25 W 1018,4 35 58 0,0
11.08.2018 18:00:00 23,2 3,9 25,1 28,5 25,6 22,6 32 18 49 27 W 1018,1 31 55 0,0
11.08.2018 17:00:00 23,3 4,7 24,9 29,0 25,2 22,6 26 14 46 25 W 1018,1 29 47 0,0
11.08.2018 16:00:00 23,1 7,4 25,0 28,6 24,9 22,6 23 12 42 23 W 1018,4 39 45 0,0
11.08.2018 15:00:00 22,0 9,5 23,3 26,3 24,6 22,6 15 8 32 17 W 1018,4 41 20 0,2
11.08.2018 14:00:00 23,3 8,6 26,8 26,1 24,4 22,6 11 6 34 18 WSW 1018,5 36 20 0,0
11.08.2018 13:00:00 20,5 11,0 19,6 24,3 24,3 22,6 12 7 22 12 WSW 1019,0 26 12 0,0
11.08.2018 12:00:00 18,8 12,9 19,0 23,8 24,2 22,6 10 5 31 17 SSW 1019,4 40 4 0,9
11.08.2018 11:00:00 21,8 9,9 24,2 24,8 24,0 22,6 16 9 24 13 SSW 1019,4 35 19 0,0
11.08.2018 10:00:00 19,1 11,2 17,8 23,1 24,0 22,6 13 7 22 12 SW 1019,5 34 4 0,0
11.08.2018 09:00:00 18,3 11,3 19,6 22,7 23,9 22,6 12 6 16 9 S 1019,5 40 6 0,0
11.08.2018 08:00:00 16,4 11,9 17,4 21,3 24,1 22,6 11 6 16 9 SSE 1019,7 34 40 0,0
11.08.2018 07:00:00 14,8 11,5 16,0 19,6 24,3 22,6 8 4 14 7 SE 1020,0 24 31 0,0
11.08.2018 06:00:00 13,1 11,1 12,0 19,6 24,7 22,6 8 4 12 6 SE 1020,1 27 0 0,0
11.08.2018 05:00:00 14,3 11,4 13,2 20,3 25,0 22,6 8 4 14 8 ESE 1020,4 32 0 0,0
11.08.2018 04:00:00 14,2 11,0 12,9 20,5 25,3 22,6 6 4 11 6 ESE 1021,0 26 0 0,0
11.08.2018 03:00:00 14,4 10,9 13,8 21,0 25,7 22,6 7 4 10 5 SE 1021,4 30 0 0,0
11.08.2018 02:00:00 14,4 10,4 13,5 21,0 26,1 22,6 6 3 8 5 E 1022,0 29 0 0,0
11.08.2018 01:00:00 14,2 10,9 11,2 21,4 26,6 22,6 4 2 6 3 ENE 1022,3 28 0 0,0
11.08.2018 00:00:00 13,5 10,3 11,8 22,2 27,1 22,6 0 0 5 3 N 1022,2 38 0 0,0
10.08.2018 23:00:00 14,2 10,2 12,6 23,2 27,6 22,6 5 3 6 3 SE 1022,4 45 0 0,0
10.08.2018 22:00:00 15,7 10,4 13,7 24,4 28,0 22,6 2 1 5 3 E 1022,3 49 0 0,0
10.08.2018 21:00:00 18,5 9,7 15,7 26,1 28,4 22,6 3 2 11 6 NNW 1022,0 45 26 0,0
10.08.2018 20:00:00 22,6 7,7 21,0 28,4 28,5 22,6 6 3 24 13 NW 1021,5 69 60 0,0
10.08.2018 19:00:00 23,8 7,5 24,2 30,7 28,5 22,6 16 9 27 15 W 1021,3 54 59 0,0
10.08.2018 18:00:00 24,0 8,6 27,4 30,2 28,4 22,5 11 6 22 12 WNW 1021,5 49 13 0,0

tt = temperature
td = dewpoint
tt 5cm = temperature 5cm
tt -5cm = temperature -5cm
tt -20cm = temperature -20cm
tt -100cm = temperature -100cm
ff = wind speed
fx = gusts
dd = wind direction
ppp = reduced air pressure
vv = visibility
sd = sunshine duration
rr = precipitation

Next stations